Simultaneous Nadir Overpasses (SNOs) Predictions

Prediction of SNOs between NOAA-19 and TERRA Satellite Orbit:

Table of predicted SNOs for the next 14.0 days since TLE Epoch: 2/25/2012
Index Date (NOAA-19) Time (NOAA-19) NOAA-19 Lat,Lon Date (TERRA) Time (TERRA) TERRA Lat,Lon Distance(km) Time Diff (sec)
1 02/26/2012 18:46:59 69.71,-103.56 02/26/2012 18:48:08 69.59,-101.95 63.71 69
2 02/26/2012 19:37:51 -68.93, 64.80 02/26/2012 19:37:48 -68.92, 64.81 0.90 3
3 02/26/2012 20:28:35 68.15,-126.90 02/26/2012 20:27:26 68.20,-128.43 63.20 69
4 02/28/2012 23:31:35 69.05,-173.79 02/28/2012 23:32:36 69.02,-173.77 3.25 61
5 02/29/2012 00:22:38 -68.84, -6.28 02/29/2012 00:22:07 -68.85, -6.35 2.86 31
6 03/02/2012 04:16:22 68.96, 115.13 03/02/2012 04:16:54 68.98, 115.10 2.35 32
7 03/02/2012 05:07:26 -68.81, -77.44 03/02/2012 05:06:25 -68.81, -77.47 1.15 61
8 03/04/2012 08:10:26 -69.71,-124.40 03/04/2012 08:11:35 -69.57,-122.83 62.52 69
9 03/04/2012 09:01:10 68.92, 43.98 03/04/2012 09:01:12 68.91, 43.94 2.36 2
10 03/04/2012 09:52:02 -68.15,-147.76 03/04/2012 09:50:52 -68.24,-149.24 62.10 70
11 03/06/2012 12:55:02 -69.05, 165.35 03/06/2012 12:56:01 -69.03, 165.39 2.35 59
12 03/06/2012 13:45:58 68.88, -27.17 03/06/2012 13:45:29 68.86, -27.18 2.36 29
13 03/08/2012 17:39:49 -68.97, 94.26 03/08/2012 17:40:18 -68.96, 94.24 1.26 29
14 03/08/2012 18:30:46 68.85, -98.31 03/08/2012 18:29:45 68.85, -98.26 2.02 61




NCC Satellite Simultaneous Nadir Overpasses (SNOs) Prediction Service
